Location: Newark
(37.1692°N, 95.2017°W)
Time: 13:09:07
(UTC+00:00)

Hubble Space Telescope - Visible Passes

Search period start: 27 January 2020 00:00
Search period end: 06 February 2020 00:00
Orbit: 536 x 540 km, 28.5° (Epoch: 26 January)

Date Brightness Start Highest point End Pass type
(mag) Time Alt. Az. Time Alt. Az. Time Alt. Az.
29 Jan 3.5 12:08:06 10° S 12:09:34 12° SSE 12:11:04 10° SE visible
30 Jan 3.4 11:56:42 10° SSW 11:58:50 14° SSE 12:00:59 10° SE visible
31 Jan 3.2 11:45:47 11° SSW 11:48:06 16° SSE 11:50:39 10° SE visible
01 Feb 2.9 11:35:59 15° SSW 11:37:23 18° SSE 11:40:13 10° ESE visible
02 Feb 2.7 11:26:07 19° S 11:26:40 20° S 11:29:42 10° ESE visible
03 Feb 2.7 11:16:11 21° SSE 11:16:11 21° SSE 11:19:08 10° ESE visible
04 Feb 2.8 11:06:13 21° SSE 11:06:13 21° SSE 11:08:32 10° ESE visible
04 Feb 2.6 12:42:43 10° WSW 12:45:55 22° S 12:49:06 10° SE visible
05 Feb 3.1 10:56:12 18° SE 10:56:12 18° SE 10:57:52 10° ESE visible
05 Feb 2.7 12:32:08 10° WSW 12:35:12 20° S 12:38:15 10° SE visible
